Time,TemperatureF,DewpointF,PressureIn,WindDirection,WindDirectionDegrees,WindSpeedMPH,WindSpeedGustMPH,Humidity,HourlyPrecipIn,Conditions,Clouds,dailyrainin,SoftwareType,DateUTC
2013-03-04 00:00:00,32.9,32.2,29.46,North,351,0.0,1.0,97,0.01,,,0.02,meteohub,2013-03-04 05:00:00,
2013-03-04 00:01:00,32.7,32.0,29.46,North,351,0.0,1.0,97,0.01,,,0.02,meteohub,2013-03-04 05:01:00,
2013-03-04 00:05:00,32.7,32.0,29.46,North,351,0.0,1.0,97,0.01,,,0.02,meteohub,2013-03-04 05:05:00,
2013-03-04 00:10:00,32.7,32.0,29.46,North,351,0.0,0.0,97,0.01,,,0.02,meteohub,2013-03-04 05:10:00,
2013-03-04 00:15:00,33.1,32.4,29.47,North,351,0.0,2.0,97,0.01,,,0.02,meteohub,2013-03-04 05:15:00,
2013-03-04 00:20:00,33.1,32.4,29.46,North,351,0.0,2.0,97,0.01,,,0.02,meteohub,2013-03-04 05:20:00,
2013-03-04 00:26:00,33.1,32.4,29.46,North,351,0.0,2.0,97,0.01,,,0.02,meteohub,2013-03-04 05:26:00,
2013-03-04 00:31:00,33.1,32.4,29.47,North,351,0.0,1.0,97,0.01,,,0.02,meteohub,2013-03-04 05:31:00,
2013-03-04 00:36:00,33.1,32.4,29.46,North,351,1.0,1.0,97,0.00,,,0.02,meteohub,2013-03-04 05:36:00,
2013-03-04 00:41:00,33.1,32.4,29.46,North,351,0.0,2.0,97,0.01,,,0.03,meteohub,2013-03-04 05:41:00,
2013-03-04 00:46:00,33.3,32.5,29.46,North,351,0.0,2.0,97,0.01,,,0.03,meteohub,2013-03-04 05:46:00,
2013-03-04 00:51:00,33.3,32.5,29.46,North,351,0.0,2.0,97,0.01,,,0.03,meteohub,2013-03-04 05:51:00,
2013-03-04 00:57:00,33.3,32.5,29.47,North,351,0.0,2.0,97,0.01,,,0.03,meteohub,2013-03-04 05:57:00,
2013-03-04 01:02:00,33.4,32.7,29.47,North,351,1.0,2.0,97,0.01,,,0.03,meteohub,2013-03-04 06:02:00,
2013-03-04 01:07:00,33.3,32.5,29.47,North,351,0.0,2.0,97,0.01,,,0.03,meteohub,2013-03-04 06:07:00,
2013-03-04 01:12:00,33.4,32.7,29.47,North,351,0.0,2.0,97,0.02,,,0.04,meteohub,2013-03-04 06:12:00,
2013-03-04 01:17:00,33.4,32.7,29.47,North,351,0.0,2.0,97,0.02,,,0.04,meteohub,2013-03-04 06:17:00,
2013-03-04 01:22:00,33.4,32.7,29.47,North,351,0.0,2.0,97,0.02,,,0.04,meteohub,2013-03-04 06:22:00,
2013-03-04 01:27:00,33.4,32.7,29.47,North,351,0.0,2.0,97,0.02,,,0.04,meteohub,2013-03-04 06:27:00,
2013-03-04 01:32:00,33.4,32.7,29.47,North,351,0.0,2.0,97,0.02,,,0.04,meteohub,2013-03-04 06:32:00,
2013-03-04 01:37:00,33.4,32.7,29.47,North,351,0.0,1.0,97,0.02,,,0.04,meteohub,2013-03-04 06:37:00,
2013-03-04 01:42:00,33.4,32.7,29.47,North,351,0.0,1.0,97,0.01,,,0.04,meteohub,2013-03-04 06:42:00,
2013-03-04 01:47:00,33.4,32.7,29.47,North,351,0.0,2.0,97,0.02,,,0.05,meteohub,2013-03-04 06:47:00,
2013-03-04 01:52:00,33.3,32.5,29.47,North,351,0.0,2.0,97,0.02,,,0.05,meteohub,2013-03-04 06:52:00,
2013-03-04 01:57:00,33.3,32.5,29.47,North,351,0.0,4.0,97,0.02,,,0.05,meteohub,2013-03-04 06:57:00,
2013-03-04 02:02:00,33.3,32.5,29.47,North,351,1.0,4.0,97,0.02,,,0.05,meteohub,2013-03-04 07:02:00,
2013-03-04 02:07:00,33.3,32.5,29.46,North,351,1.0,4.0,97,0.01,,,0.05,meteohub,2013-03-04 07:07:00,
2013-03-04 02:12:00,33.3,32.5,29.46,North,350,1.0,3.0,97,0.02,,,0.06,meteohub,2013-03-04 07:12:00,
2013-03-04 02:17:00,33.3,32.5,29.46,North,350,0.0,3.0,97,0.02,,,0.06,meteohub,2013-03-04 07:17:00,
2013-03-04 02:22:00,33.3,32.5,29.47,North,350,1.0,3.0,97,0.02,,,0.06,meteohub,2013-03-04 07:22:00,
2013-03-04 02:27:00,33.3,32.5,29.46,NNW,348,0.0,4.0,97,0.02,,,0.06,meteohub,2013-03-04 07:27:00,
2013-03-04 02:32:00,33.3,32.5,29.47,NNW,348,3.0,4.0,97,0.02,,,0.06,meteohub,2013-03-04 07:32:00,
2013-03-04 02:37:00,33.3,32.5,29.47,NNW,348,0.0,4.0,97,0.02,,,0.06,meteohub,2013-03-04 07:37:00,
2013-03-04 02:42:00,33.4,32.7,29.47,NNW,345,1.0,4.0,97,0.02,,,0.06,meteohub,2013-03-04 07:42:00,
2013-03-04 02:47:00,33.4,32.7,29.47,NW,317,1.0,5.0,97,0.01,,,0.06,meteohub,2013-03-04 07:47:00,
2013-03-04 02:52:00,33.6,33.1,29.47,North,5,2.0,5.0,98,0.01,,,0.06,meteohub,2013-03-04 07:52:00,
2013-03-04 02:58:00,33.6,33.1,29.47,North,5,3.0,5.0,98,0.01,,,0.06,meteohub,2013-03-04 07:58:00,
2013-03-04 03:03:00,33.6,32.9,29.47,WNW,294,0.0,5.0,97,0.01,,,0.06,meteohub,2013-03-04 08:03:00,
2013-03-04 03:08:00,33.6,32.9,29.47,North,355,0.0,5.0,97,0.01,,,0.06,meteohub,2013-03-04 08:08:00,
2013-03-04 03:13:00,33.6,32.9,29.47,NW,311,2.0,5.0,97,0.00,,,0.06,meteohub,2013-03-04 08:13:00,
2013-03-04 03:18:00,33.6,32.9,29.47,NNW,338,0.0,4.0,97,0.01,,,0.07,meteohub,2013-03-04 08:18:00,
2013-03-04 03:23:00,33.6,32.9,29.47,NW,312,0.0,4.0,97,0.01,,,0.07,meteohub,2013-03-04 08:23:00,
2013-03-04 03:28:00,33.6,32.9,29.47,NE,42,1.0,4.0,97,0.01,,,0.07,meteohub,2013-03-04 08:28:00,
2013-03-04 03:34:00,33.6,32.9,29.47,North,355,3.0,4.0,97,0.01,,,0.07,meteohub,2013-03-04 08:34:00,
2013-03-04 03:39:00,33.8,33.1,29.47,North,0,8.0,8.0,97,0.01,,,0.07,meteohub,2013-03-04 08:39:00,
2013-03-04 03:44:00,33.8,33.1,29.47,NNW,346,5.0,8.0,97,0.02,,,0.08,meteohub,2013-03-04 08:44:00,
2013-03-04 03:49:00,33.8,33.1,29.47,NNW,346,2.0,9.0,97,0.02,,,0.08,meteohub,2013-03-04 08:49:00,
2013-03-04 03:54:00,33.8,33.1,29.47,NW,324,2.0,9.0,97,0.02,,,0.08,meteohub,2013-03-04 08:54:00,
2013-03-04 03:59:00,34.0,33.3,29.47,North,355,2.0,9.0,97,0.02,,,0.08,meteohub,2013-03-04 08:59:00,
2013-03-04 04:04:00,34.0,33.3,29.47,North,349,6.0,7.0,97,0.02,,,0.08,meteohub,2013-03-04 09:04:00,
2013-03-04 04:10:00,34.0,33.3,29.47,NNW,335,2.0,7.0,97,0.02,,,0.08,meteohub,2013-03-04 09:10:00,
2013-03-04 04:15:00,34.0,33.3,29.47,NNW,344,2.0,7.0,97,0.01,,,0.08,meteohub,2013-03-04 09:15:00,
2013-03-04 04:20:00,34.0,33.3,29.47,North,355,4.0,7.0,97,0.01,,,0.08,meteohub,2013-03-04 09:20:00,
2013-03-04 04:25:00,34.0,32.9,29.48,North,355,3.0,7.0,96,0.02,,,0.09,meteohub,2013-03-04 09:25:00,
2013-03-04 04:30:00,34.2,33.1,29.48,North,9,4.0,7.0,96,0.02,,,0.09,meteohub,2013-03-04 09:30:00,
2013-03-04 04:35:00,34.2,33.1,29.48,North,355,1.0,7.0,96,0.03,,,0.10,meteohub,2013-03-04 09:35:00,
2013-03-04 04:40:00,34.0,32.9,29.48,North,355,2.0,7.0,96,0.02,,,0.10,meteohub,2013-03-04 09:40:00,
2013-03-04 04:46:00,34.0,32.9,29.48,NNW,348,1.0,7.0,96,0.02,,,0.10,meteohub,2013-03-04 09:46:00,
2013-03-04 04:51:00,34.0,32.9,29.48,NW,313,2.0,6.0,96,0.02,,,0.10,meteohub,2013-03-04 09:51:00,
2013-03-04 04:56:00,33.8,32.7,29.48,NW,315,1.0,5.0,96,0.02,,,0.10,meteohub,2013-03-04 09:56:00,
2013-03-04 05:01:00,33.8,32.7,29.48,NW,323,2.0,4.0,96,0.02,,,0.10,meteohub,2013-03-04 10:01:00,
2013-03-04 05:06:00,33.8,32.7,29.48,North,355,3.0,4.0,96,0.02,,,0.10,meteohub,2013-03-04 10:06:00,
2013-03-04 05:11:00,33.8,32.7,29.49,North,0,1.0,4.0,96,0.02,,,0.10,meteohub,2013-03-04 10:11:00,
2013-03-04 05:17:00,33.6,32.5,29.49,NNE,19,0.0,4.0,96,0.03,,,0.11,meteohub,2013-03-04 10:17:00,
2013-03-04 05:22:00,33.6,32.5,29.49,WNW,284,0.0,4.0,96,0.03,,,0.11,meteohub,2013-03-04 10:22:00,
2013-03-04 05:27:00,33.4,32.4,29.49,NNW,342,0.0,4.0,96,0.02,,,0.11,meteohub,2013-03-04 10:27:00,
2013-03-04 05:32:00,33.4,32.4,29.49,NNW,336,1.0,6.0,96,0.03,,,0.12,meteohub,2013-03-04 10:32:00,
2013-03-04 05:37:00,33.4,32.4,29.49,North,5,0.0,6.0,96,0.02,,,0.12,meteohub,2013-03-04 10:37:00,
2013-03-04 05:42:00,33.4,32.4,29.49,NNW,328,1.0,4.0,96,0.02,,,0.12,meteohub,2013-03-04 10:42:00,
2013-03-04 05:47:00,33.4,32.4,29.49,NNW,340,3.0,4.0,96,0.02,,,0.12,meteohub,2013-03-04 10:47:00,
2013-03-04 05:52:00,33.4,32.4,29.49,North,351,0.0,4.0,96,0.02,,,0.12,meteohub,2013-03-04 10:52:00,
2013-03-04 05:57:00,33.4,32.7,29.49,North,0,3.0,5.0,97,0.02,,,0.12,meteohub,2013-03-04 10:57:00,
2013-03-04 06:02:00,33.4,32.7,29.49,North,355,0.0,5.0,97,0.02,,,0.12,meteohub,2013-03-04 11:02:00,
2013-03-04 06:07:00,33.4,32.7,29.49,NNW,336,2.0,5.0,97,0.02,,,0.12,meteohub,2013-03-04 11:07:00,
2013-03-04 06:12:00,33.4,32.7,29.49,NNE,27,1.0,5.0,97,0.02,,,0.12,meteohub,2013-03-04 11:12:00,
2013-03-04 06:17:00,33.4,32.7,29.49,NNE,19,1.0,5.0,97,0.01,,,0.12,meteohub,2013-03-04 11:17:00,
2013-03-04 06:22:00,33.4,32.7,29.49,NNE,19,1.0,5.0,97,0.02,,,0.13,meteohub,2013-03-04 11:22:00,
2013-03-04 06:27:00,33.4,32.7,29.49,NNE,19,0.0,3.0,97,0.02,,,0.13,meteohub,2013-03-04 11:27:00,
2013-03-04 06:32:00,33.6,32.9,29.49,North,355,1.0,2.0,97,0.01,,,0.13,meteohub,2013-03-04 11:32:00,
2013-03-04 06:37:00,33.6,32.9,29.49,NNW,343,0.0,5.0,97,0.01,,,0.13,meteohub,2013-03-04 11:37:00,
2013-03-04 06:42:00,33.6,32.9,29.50,North,355,1.0,5.0,97,0.02,,,0.14,meteohub,2013-03-04 11:42:00,
2013-03-04 06:47:00,33.4,32.7,29.50,North,0,0.0,5.0,97,0.02,,,0.14,meteohub,2013-03-04 11:47:00,
2013-03-04 06:53:00,33.6,32.9,29.50,North,355,2.0,4.0,97,0.02,,,0.14,meteohub,2013-03-04 11:53:00,
2013-03-04 06:58:00,33.6,32.9,29.50,NNW,346,1.0,4.0,97,0.02,,,0.14,meteohub,2013-03-04 11:58:00,
2013-03-04 07:03:00,33.8,33.1,29.50,North,0,2.0,5.0,97,0.02,,,0.14,meteohub,2013-03-04 12:03:00,
2013-03-04 07:08:00,34.0,33.3,29.50,North,355,1.0,5.0,97,0.02,,,0.14,meteohub,2013-03-04 12:08:00,
2013-03-04 07:13:00,34.0,33.3,29.50,North,5,0.0,5.0,97,0.02,,,0.14,meteohub,2013-03-04 12:13:00,
2013-03-04 07:18:00,34.2,33.4,29.50,North,5,3.0,5.0,97,0.02,,,0.14,meteohub,2013-03-04 12:18:00,
2013-03-04 07:24:00,34.2,33.4,29.51,North,355,3.0,5.0,97,0.01,,,0.14,meteohub,2013-03-04 12:24:00,
2013-03-04 07:29:00,34.3,33.6,29.51,North,5,1.0,6.0,97,0.02,,,0.15,meteohub,2013-03-04 12:29:00,
2013-03-04 07:34:00,34.3,33.6,29.50,North,11,1.0,6.0,97,0.02,,,0.15,meteohub,2013-03-04 12:34:00,
2013-03-04 07:39:00,34.5,33.4,29.50,NW,314,2.0,6.0,96,0.01,,,0.15,meteohub,2013-03-04 12:39:00,
2013-03-04 07:44:00,34.5,33.8,29.50,WNW,302,2.0,6.0,97,0.01,,,0.15,meteohub,2013-03-04 12:44:00,
2013-03-04 07:49:00,34.9,33.8,29.50,North,355,3.0,7.0,96,0.01,,,0.15,meteohub,2013-03-04 12:49:00,
2013-03-04 07:54:00,34.9,33.8,29.50,NNE,17,4.0,7.0,96,0.01,,,0.15,meteohub,2013-03-04 12:54:00,
2013-03-04 07:59:00,35.1,34.0,29.51,North,11,4.0,7.0,96,0.01,,,0.15,meteohub,2013-03-04 12:59:00,
2013-03-04 08:05:00,35.1,33.8,29.51,North,0,1.0,8.0,95,0.01,,,0.15,meteohub,2013-03-04 13:05:00,
2013-03-04 08:10:00,35.1,33.8,29.51,NNE,13,2.0,8.0,95,0.01,,,0.15,meteohub,2013-03-04 13:10:00,
2013-03-04 08:15:00,35.2,34.0,29.51,North,0,4.0,8.0,95,0.01,,,0.15,meteohub,2013-03-04 13:15:00,
2013-03-04 08:20:00,35.2,34.0,29.51,NE,40,0.0,6.0,95,0.01,,,0.15,meteohub,2013-03-04 13:20:00,
2013-03-04 08:25:00,35.2,34.0,29.50,NNE,17,3.0,6.0,95,0.00,,,0.15,meteohub,2013-03-04 13:25:00,
2013-03-04 08:30:00,35.2,34.0,29.51,North,350,1.0,6.0,95,0.00,,,0.15,meteohub,2013-03-04 13:30:00,
2013-03-04 08:35:00,35.2,34.0,29.51,North,5,3.0,5.0,95,0.00,,,0.15,meteohub,2013-03-04 13:35:00,
2013-03-04 08:40:00,35.2,34.0,29.51,NNE,24,0.0,6.0,95,0.00,,,0.15,meteohub,2013-03-04 13:40:00,
2013-03-04 08:46:00,35.2,34.0,29.51,North,355,1.0,6.0,95,0.00,,,0.15,meteohub,2013-03-04 13:46:00,
2013-03-04 08:51:00,35.2,34.0,29.51,North,5,0.0,5.0,95,0.01,,,0.16,meteohub,2013-03-04 13:51:00,
2013-03-04 08:56:00,35.2,34.0,29.51,NNW,348,0.0,5.0,95,0.01,,,0.16,meteohub,2013-03-04 13:56:00,
2013-03-04 09:01:00,35.2,34.0,29.51,NNW,342,2.0,5.0,95,0.01,,,0.16,meteohub,2013-03-04 14:01:00,
2013-03-04 09:06:00,35.4,34.2,29.51,NNE,30,6.0,7.0,95,0.01,,,0.16,meteohub,2013-03-04 14:06:00,
2013-03-04 09:11:00,35.4,34.2,29.51,NW,309,2.0,8.0,95,0.01,,,0.16,meteohub,2013-03-04 14:11:00,
2013-03-04 09:16:00,35.6,34.3,29.51,NNE,25,2.0,8.0,95,0.01,,,0.16,meteohub,2013-03-04 14:16:00,
2013-03-04 09:22:00,35.8,34.5,29.52,NNW,329,3.0,8.0,95,0.01,,,0.16,meteohub,2013-03-04 14:22:00,
2013-03-04 09:27:00,35.8,34.5,29.52,West,279,2.0,7.0,95,0.01,,,0.16,meteohub,2013-03-04 14:27:00,
2013-03-04 09:32:00,36.0,34.7,29.52,North,355,2.0,7.0,95,0.01,,,0.16,meteohub,2013-03-04 14:32:00,
2013-03-04 09:37:00,36.0,34.7,29.52,North,5,4.0,7.0,95,0.01,,,0.16,meteohub,2013-03-04 14:37:00,
2013-03-04 09:42:00,36.1,34.5,29.52,NNE,17,1.0,6.0,94,0.01,,,0.16,meteohub,2013-03-04 14:42:00,
2013-03-04 09:47:00,36.1,34.5,29.52,North,5,3.0,6.0,94,0.01,,,0.16,meteohub,2013-03-04 14:47:00,
2013-03-04 09:52:00,36.3,34.5,29.52,NE,47,4.0,6.0,93,0.00,,,0.16,meteohub,2013-03-04 14:52:00,
2013-03-04 09:57:00,36.3,34.5,29.53,ENE,59,3.0,10.0,93,0.00,,,0.16,meteohub,2013-03-04 14:57:00,
2013-03-04 10:02:00,36.3,34.5,29.52,North,355,5.0,10.0,93,0.00,,,0.16,meteohub,2013-03-04 15:02:00,
2013-03-04 10:07:00,36.3,34.5,29.53,NNE,15,0.0,10.0,93,0.00,,,0.16,meteohub,2013-03-04 15:07:00,
2013-03-04 10:12:00,36.5,34.7,29.53,NW,309,3.0,7.0,93,0.00,,,0.16,meteohub,2013-03-04 15:12:00,
2013-03-04 10:17:00,36.5,34.7,29.53,North,5,5.0,5.0,93,0.00,,,0.16,meteohub,2013-03-04 15:17:00,
2013-03-04 10:22:00,36.5,34.7,29.54,NNE,23,1.0,7.0,93,0.01,,,0.17,meteohub,2013-03-04 15:22:00,
2013-03-04 10:27:00,36.5,34.7,29.54,NE,56,5.0,7.0,93,0.01,,,0.17,meteohub,2013-03-04 15:27:00,
2013-03-04 10:32:00,36.3,34.2,29.54,NE,44,1.0,13.0,92,0.01,,,0.17,meteohub,2013-03-04 15:32:00,
2013-03-04 10:37:00,36.5,34.3,29.54,NNE,15,2.0,13.0,92,0.01,,,0.17,meteohub,2013-03-04 15:37:00,
2013-03-04 10:42:00,36.7,34.9,29.54,NE,40,1.0,13.0,93,0.01,,,0.17,meteohub,2013-03-04 15:42:00,
2013-03-04 10:47:00,36.5,34.3,29.54,North,351,4.0,7.0,92,0.01,,,0.17,meteohub,2013-03-04 15:47:00,
2013-03-04 10:52:00,36.3,34.5,29.54,NNE,15,3.0,5.0,93,0.02,,,0.18,meteohub,2013-03-04 15:52:00,
2013-03-04 10:57:00,36.5,34.7,29.55,NE,56,0.0,6.0,93,0.02,,,0.18,meteohub,2013-03-04 15:57:00,
2013-03-04 11:02:00,36.5,34.3,29.55,NE,54,4.0,6.0,92,0.02,,,0.18,meteohub,2013-03-04 16:02:00,
2013-03-04 11:07:00,36.7,34.5,29.55,ENE,67,4.0,7.0,92,0.02,,,0.18,meteohub,2013-03-04 16:07:00,
2013-03-04 11:12:00,36.7,34.3,29.55,ENE,59,3.0,7.0,91,0.02,,,0.18,meteohub,2013-03-04 16:12:00,
2013-03-04 11:17:00,36.9,34.5,29.55,ENE,57,2.0,12.0,91,0.02,,,0.18,meteohub,2013-03-04 16:17:00,
2013-03-04 11:22:00,36.9,34.5,29.55,NE,49,1.0,12.0,91,0.01,,,0.18,meteohub,2013-03-04 16:22:00,
2013-03-04 11:27:00,37.0,34.7,29.55,North,355,0.0,6.0,91,0.01,,,0.18,meteohub,2013-03-04 16:27:00,
2013-03-04 11:32:00,37.0,34.7,29.55,North,355,0.0,6.0,91,0.01,,,0.18,meteohub,2013-03-04 16:32:00,
2013-03-04 11:37:00,37.2,34.9,29.55,North,355,3.0,8.0,91,0.01,,,0.18,meteohub,2013-03-04 16:37:00,
2013-03-04 11:42:00,37.4,34.2,29.55,ENE,59,4.0,8.0,88,0.01,,,0.18,meteohub,2013-03-04 16:42:00,
2013-03-04 11:47:00,37.8,34.2,29.55,NE,55,7.0,10.0,87,0.01,,,0.18,meteohub,2013-03-04 16:47:00,
2013-03-04 11:52:00,37.9,34.2,29.55,ENE,63,8.0,11.0,86,0.00,,,0.18,meteohub,2013-03-04 16:52:00,
2013-03-04 11:57:00,38.3,34.0,29.55,ENE,57,5.0,11.0,84,0.00,,,0.18,meteohub,2013-03-04 16:57:00,
2013-03-04 12:03:00,38.8,33.4,29.55,East,86,8.0,11.0,81,0.00,,,0.18,meteohub,2013-03-04 17:03:00,
2013-03-04 12:08:00,39.2,33.6,29.55,NE,53,8.0,25.0,80,0.00,,,0.18,meteohub,2013-03-04 17:08:00,
2013-03-04 12:13:00,39.4,33.8,29.55,NE,39,4.0,25.0,80,0.00,,,0.18,meteohub,2013-03-04 17:13:00,
2013-03-04 12:18:00,39.4,33.8,29.55,West,269,1.0,25.0,80,0.00,,,0.18,meteohub,2013-03-04 17:18:00,
2013-03-04 12:23:00,39.4,34.0,29.55,NNE,25,3.0,18.0,81,0.00,,,0.18,meteohub,2013-03-04 17:23:00,
2013-03-04 12:28:00,39.0,33.6,29.55,North,5,5.0,18.0,81,0.00,,,0.18,meteohub,2013-03-04 17:28:00,
2013-03-04 12:33:00,38.5,33.1,29.55,NE,54,7.0,15.0,81,0.00,,,0.18,meteohub,2013-03-04 17:33:00,
2013-03-04 12:39:00,38.5,33.4,29.55,ENE,70,5.0,15.0,82,0.00,,,0.18,meteohub,2013-03-04 17:39:00,
2013-03-04 12:44:00,38.8,33.4,29.55,NE,41,6.0,12.0,81,0.00,,,0.18,meteohub,2013-03-04 17:44:00,
2013-03-04 12:49:00,38.7,34.0,29.55,NNE,19,3.0,12.0,83,0.00,,,0.18,meteohub,2013-03-04 17:49:00,
2013-03-04 12:54:00,38.3,33.6,29.55,ENE,66,2.0,11.0,83,0.00,,,0.18,meteohub,2013-03-04 17:54:00,
2013-03-04 12:59:00,38.8,33.4,29.55,ENE,59,4.0,11.0,81,0.00,,,0.18,meteohub,2013-03-04 17:59:00,
2013-03-04 13:04:00,39.4,33.4,29.56,NE,49,8.0,13.0,79,0.00,,,0.18,meteohub,2013-03-04 18:04:00,
2013-03-04 13:10:00,39.0,33.4,29.55,ENE,57,4.0,14.0,80,0.00,,,0.18,meteohub,2013-03-04 18:10:00,
2013-03-04 13:15:00,39.0,33.4,29.55,ENE,58,3.0,17.0,80,0.00,,,0.18,meteohub,2013-03-04 18:15:00,
2013-03-04 13:20:00,39.6,32.9,29.55,East,92,6.0,17.0,77,0.00,,,0.18,meteohub,2013-03-04 18:20:00,
2013-03-04 13:25:00,39.9,32.9,29.55,ESE,119,1.0,17.0,76,0.00,,,0.18,meteohub,2013-03-04 18:25:00,
2013-03-04 13:29:00,40.1,33.1,29.55,NNE,13,9.0,17.0,76,0.00,,,0.18,meteohub,2013-03-04 18:29:00,
2013-03-04 13:30:00,40.1,33.1,29.55,East,92,6.0,17.0,76,0.00,,,0.18,meteohub,2013-03-04 18:30:00,
2013-03-04 13:35:00,40.3,33.1,29.55,NE,52,3.0,13.0,75,0.00,,,0.18,meteohub,2013-03-04 18:35:00,
2013-03-04 13:36:00,40.3,33.1,29.56,ENE,61,5.0,13.0,75,0.00,,,0.18,meteohub,2013-03-04 18:36:00,
2013-03-04 13:42:00,40.3,32.7,29.56,ENE,69,7.0,13.0,74,0.00,,,0.18,meteohub,2013-03-04 18:42:00,
2013-03-04 13:47:00,40.3,32.4,29.56,ENE,62,12.0,16.0,73,0.00,,,0.18,meteohub,2013-03-04 18:47:00,
2013-03-04 13:52:00,40.1,32.2,29.56,NE,52,8.0,16.0,73,0.00,,,0.18,meteohub,2013-03-04 18:52:00,
2013-03-04 13:57:00,40.1,32.5,29.56,NNE,30,3.0,16.0,74,0.00,,,0.18,meteohub,2013-03-04 18:57:00,
2013-03-04 14:02:00,40.3,33.3,29.57,NE,49,0.0,14.0,76,0.00,,,0.18,meteohub,2013-03-04 19:02:00,
2013-03-04 14:07:00,39.9,32.7,29.57,NNW,327,4.0,9.0,75,0.00,,,0.18,meteohub,2013-03-04 19:07:00,
2013-03-04 14:12:00,39.7,32.7,29.57,ENE,67,8.0,12.0,76,0.00,,,0.18,meteohub,2013-03-04 19:12:00,
2013-03-04 14:17:00,39.2,32.9,29.57,NE,46,6.0,12.0,78,0.00,,,0.18,meteohub,2013-03-04 19:17:00,
2013-03-04 14:22:00,39.0,33.1,29.57,East,87,7.0,12.0,79,0.00,,,0.18,meteohub,2013-03-04 19:22:00,
2013-03-04 14:28:00,39.0,33.1,29.58,ENE,75,4.0,11.0,79,0.00,,,0.18,meteohub,2013-03-04 19:28:00,
2013-03-04 14:33:00,39.2,33.3,29.58,ENE,73,11.0,11.0,79,0.00,,,0.18,meteohub,2013-03-04 19:33:00,
2013-03-04 14:38:00,38.7,33.3,29.59,NE,51,3.0,10.0,81,0.00,,,0.18,meteohub,2013-03-04 19:38:00,
2013-03-04 14:43:00,38.5,33.4,29.59,ENE,67,5.0,15.0,82,0.00,,,0.18,meteohub,2013-03-04 19:43:00,
2013-03-04 14:48:00,38.3,33.6,29.59,NNE,29,2.0,15.0,83,0.00,,,0.18,meteohub,2013-03-04 19:48:00,
2013-03-04 14:54:00,38.5,33.8,29.59,NE,40,2.0,13.0,83,0.00,,,0.18,meteohub,2013-03-04 19:54:00,
2013-03-04 14:59:00,38.5,33.4,29.59,ENE,63,3.0,9.0,82,0.00,,,0.18,meteohub,2013-03-04 19:59:00,
2013-03-04 15:04:00,38.5,33.4,29.59,East,101,3.0,5.0,82,0.00,,,0.18,meteohub,2013-03-04 20:04:00,
2013-03-04 15:09:00,38.5,33.4,29.59,North,355,1.0,13.0,82,0.00,,,0.18,meteohub,2013-03-04 20:09:00,
2013-03-04 15:14:00,38.5,34.3,29.60,NNW,343,2.0,13.0,85,0.00,,,0.18,meteohub,2013-03-04 20:14:00,
2013-03-04 15:20:00,38.3,34.7,29.60,NNW,340,4.0,13.0,87,0.00,,,0.18,meteohub,2013-03-04 20:20:00,
2013-03-04 15:25:00,38.1,34.5,29.60,NNE,30,0.0,6.0,87,0.00,,,0.18,meteohub,2013-03-04 20:25:00,
2013-03-04 15:30:00,38.1,34.9,29.60,NNE,30,0.0,5.0,88,0.00,,,0.18,meteohub,2013-03-04 20:30:00,
2013-03-04 15:35:00,37.9,34.7,29.60,NNE,30,0.0,5.0,88,0.00,,,0.18,meteohub,2013-03-04 20:35:00,
2013-03-04 15:40:00,37.9,35.1,29.61,NNE,30,0.0,0.0,89,0.00,,,0.18,meteohub,2013-03-04 20:40:00,
2013-03-04 15:45:00,37.8,34.9,29.61,NNE,30,0.0,1.0,89,0.00,,,0.18,meteohub,2013-03-04 20:45:00,
2013-03-04 15:50:00,37.6,34.9,29.62,NNE,30,1.0,1.0,90,0.00,,,0.18,meteohub,2013-03-04 20:50:00,
2013-03-04 15:56:00,37.2,34.3,29.61,North,9,7.0,7.0,89,0.00,,,0.18,meteohub,2013-03-04 20:56:00,
2013-03-04 16:01:00,37.0,34.2,29.61,ENE,59,3.0,10.0,89,0.01,,,0.19,meteohub,2013-03-04 21:01:00,
2013-03-04 16:06:00,37.0,34.2,29.62,ENE,61,3.0,10.0,89,0.01,,,0.19,meteohub,2013-03-04 21:06:00,
2013-03-04 16:11:00,36.9,33.6,29.62,ENE,62,2.0,10.0,88,0.01,,,0.19,meteohub,2013-03-04 21:11:00,
2013-03-04 16:16:00,36.9,34.0,29.62,ENE,63,0.0,6.0,89,0.01,,,0.19,meteohub,2013-03-04 21:16:00,
2013-03-04 16:21:00,36.9,34.0,29.62,NE,50,0.0,5.0,89,0.01,,,0.19,meteohub,2013-03-04 21:21:00,
2013-03-04 16:26:00,36.9,34.2,29.62,NNE,13,1.0,4.0,90,0.01,,,0.19,meteohub,2013-03-04 21:26:00,
2013-03-04 16:31:00,36.9,34.2,29.63,NNE,32,0.0,4.0,90,0.01,,,0.19,meteohub,2013-03-04 21:31:00,
2013-03-04 16:37:00,36.9,34.2,29.63,NNE,32,0.0,4.0,90,0.01,,,0.19,meteohub,2013-03-04 21:37:00,
2013-03-04 16:42:00,36.9,34.5,29.63,NNE,32,0.0,2.0,91,0.01,,,0.19,meteohub,2013-03-04 21:42:00,
2013-03-04 16:47:00,36.9,34.5,29.64,NNE,32,0.0,2.0,91,0.01,,,0.19,meteohub,2013-03-04 21:47:00,
2013-03-04 16:52:00,36.7,34.3,29.64,NNE,32,1.0,2.0,91,0.01,,,0.19,meteohub,2013-03-04 21:52:00,
2013-03-04 16:57:00,36.7,34.3,29.64,NNE,32,0.0,2.0,91,0.00,,,0.19,meteohub,2013-03-04 21:57:00,
2013-03-04 17:03:00,36.7,34.3,29.64,NNE,13,0.0,4.0,91,0.00,,,0.19,meteohub,2013-03-04 22:03:00,
2013-03-04 17:08:00,36.7,34.0,29.65,North,0,3.0,4.0,90,0.00,,,0.19,meteohub,2013-03-04 22:08:00,
2013-03-04 17:13:00,36.7,34.0,29.65,NNE,14,4.0,5.0,90,0.00,,,0.19,meteohub,2013-03-04 22:13:00,
2013-03-04 17:18:00,36.7,34.0,29.65,North,5,2.0,6.0,90,0.00,,,0.19,meteohub,2013-03-04 22:18:00,
2013-03-04 17:23:00,36.7,34.0,29.65,NNE,24,0.0,6.0,90,0.00,,,0.19,meteohub,2013-03-04 22:23:00,
2013-03-04 17:28:00,36.7,34.3,29.65,NNE,24,0.0,6.0,91,0.00,,,0.19,meteohub,2013-03-04 22:28:00,
2013-03-04 17:34:00,36.5,34.2,29.66,NE,43,0.0,5.0,91,0.00,,,0.19,meteohub,2013-03-04 22:34:00,
2013-03-04 17:39:00,36.3,34.0,29.66,NNE,24,0.0,6.0,91,0.00,,,0.19,meteohub,2013-03-04 22:39:00,
2013-03-04 17:44:00,36.1,33.8,29.66,NE,40,1.0,6.0,91,0.00,,,0.19,meteohub,2013-03-04 22:44:00,
2013-03-04 17:49:00,36.1,33.8,29.67,NE,38,0.0,6.0,91,0.00,,,0.19,meteohub,2013-03-04 22:49:00,
2013-03-04 17:54:00,36.0,33.8,29.67,NNE,24,2.0,4.0,92,0.00,,,0.19,meteohub,2013-03-04 22:54:00,
2013-03-04 18:00:00,36.0,33.6,29.67,NNE,24,0.0,4.0,91,0.00,,,0.19,meteohub,2013-03-04 23:00:00,
2013-03-04 18:05:00,36.0,33.6,29.67,East,101,0.0,5.0,91,0.00,,,0.19,meteohub,2013-03-04 23:05:00,
2013-03-04 18:10:00,36.1,33.4,29.68,NNE,30,1.0,5.0,90,0.00,,,0.19,meteohub,2013-03-04 23:10:00,
2013-03-04 18:15:00,36.1,33.4,29.68,NNE,14,0.0,5.0,90,0.00,,,0.19,meteohub,2013-03-04 23:15:00,
2013-03-04 18:20:00,36.1,33.3,29.69,NE,36,0.0,7.0,89,0.00,,,0.19,meteohub,2013-03-04 23:20:00,
2013-03-04 18:26:00,36.1,33.3,29.69,NE,36,0.0,7.0,89,0.00,,,0.19,meteohub,2013-03-04 23:26:00,
2013-03-04 18:31:00,36.1,33.3,29.69,North,355,0.0,7.0,89,0.00,,,0.19,meteohub,2013-03-04 23:31:00,
2013-03-04 18:36:00,36.1,33.3,29.70,North,5,1.0,4.0,89,0.00,,,0.19,meteohub,2013-03-04 23:36:00,
2013-03-04 18:41:00,36.0,33.1,29.70,North,0,1.0,4.0,89,0.00,,,0.19,meteohub,2013-03-04 23:41:00,
2013-03-04 18:46:00,36.0,33.3,29.70,North,5,0.0,4.0,90,0.00,,,0.19,meteohub,2013-03-04 23:46:00,
2013-03-04 18:52:00,36.0,33.3,29.70,NNE,13,0.0,4.0,90,0.00,,,0.19,meteohub,2013-03-04 23:52:00,
2013-03-04 18:57:00,36.0,33.3,29.70,NNE,13,0.0,4.0,90,0.00,,,0.19,meteohub,2013-03-04 23:57:00,
2013-03-04 19:02:00,35.8,33.4,29.70,NNE,13,1.0,4.0,91,0.00,,,0.19,meteohub,2013-03-05 00:02:00,
2013-03-04 19:07:00,35.8,33.4,29.70,NNE,13,0.0,3.0,91,0.00,,,0.00,meteohub,2013-03-05 00:07:00,
2013-03-04 19:12:00,35.8,33.1,29.70,NNE,13,1.0,3.0,90,0.00,,,0.00,meteohub,2013-03-05 00:12:00,
2013-03-04 19:17:00,35.8,33.1,29.71,NNE,13,0.0,3.0,90,0.00,,,0.00,meteohub,2013-03-05 00:17:00,
2013-03-04 19:23:00,35.6,32.9,29.71,NNE,13,0.0,2.0,90,0.00,,,0.00,meteohub,2013-03-05 00:23:00,
2013-03-04 19:28:00,35.6,32.9,29.71,NE,37,1.0,5.0,90,0.00,,,0.00,meteohub,2013-03-05 00:28:00,
2013-03-04 19:33:00,35.8,32.9,29.71,NE,46,2.0,5.0,89,0.00,,,0.00,meteohub,2013-03-05 00:33:00,
2013-03-04 19:38:00,36.1,32.7,29.72,ENE,65,4.0,7.0,87,0.00,,,0.00,meteohub,2013-03-05 00:38:00,
2013-03-04 19:43:00,36.1,32.4,29.72,ENE,76,2.0,8.0,86,0.00,,,0.00,meteohub,2013-03-05 00:43:00,
2013-03-04 19:48:00,36.3,32.5,29.72,ESE,118,1.0,8.0,86,0.00,,,0.00,meteohub,2013-03-05 00:48:00,
2013-03-04 19:54:00,36.3,32.5,29.73,ENE,64,1.0,8.0,86,0.00,,,0.00,meteohub,2013-03-05 00:54:00,
2013-03-04 19:59:00,36.3,32.5,29.73,NE,53,10.0,10.0,86,0.00,,,0.00,meteohub,2013-03-05 00:59:00,
2013-03-04 20:04:00,36.3,32.5,29.73,ENE,65,0.0,7.0,86,0.00,,,0.00,meteohub,2013-03-05 01:04:00,
2013-03-04 20:09:00,36.1,32.4,29.73,NNE,26,1.0,10.0,86,0.00,,,0.00,meteohub,2013-03-05 01:09:00,
2013-03-04 20:14:00,36.1,32.7,29.73,North,355,3.0,10.0,87,0.00,,,0.00,meteohub,2013-03-05 01:14:00,
2013-03-04 20:20:00,36.0,32.7,29.74,ENE,61,2.0,8.0,88,0.00,,,0.00,meteohub,2013-03-05 01:20:00,
2013-03-04 20:25:00,36.0,32.5,29.74,ENE,66,2.0,4.0,87,0.00,,,0.00,meteohub,2013-03-05 01:25:00,
2013-03-04 20:30:00,36.0,32.2,29.74,ENE,65,3.0,8.0,86,0.00,,,0.00,meteohub,2013-03-05 01:30:00,
2013-03-04 20:35:00,36.1,32.0,29.74,NE,34,2.0,10.0,85,0.00,,,0.00,meteohub,2013-03-05 01:35:00,
2013-03-04 20:40:00,36.1,32.0,29.74,ENE,57,2.0,10.0,85,0.00,,,0.00,meteohub,2013-03-05 01:40:00,
2013-03-04 20:45:00,36.1,32.4,29.74,NE,43,0.0,7.0,86,0.00,,,0.00,meteohub,2013-03-05 01:45:00,
2013-03-04 20:50:00,36.0,32.2,29.75,North,5,2.0,7.0,86,0.00,,,0.00,meteohub,2013-03-05 01:50:00,
2013-03-04 20:56:00,35.8,32.0,29.75,NE,48,4.0,7.0,86,0.00,,,0.00,meteohub,2013-03-05 01:56:00,
2013-03-04 21:01:00,36.0,31.3,29.75,ENE,71,4.0,11.0,83,0.00,,,0.00,meteohub,2013-03-05 02:01:00,
2013-03-04 21:06:00,36.1,31.5,29.75,ENE,64,5.0,11.0,83,0.00,,,0.00,meteohub,2013-03-05 02:06:00,
2013-03-04 21:11:00,36.1,31.5,29.75,ENE,69,1.0,11.0,83,0.00,,,0.00,meteohub,2013-03-05 02:11:00,
2013-03-04 21:16:00,36.1,31.5,29.75,ENE,73,3.0,10.0,83,0.00,,,0.00,meteohub,2013-03-05 02:16:00,
2013-03-04 21:21:00,36.1,31.5,29.75,ENE,61,2.0,10.0,83,0.00,,,0.00,meteohub,2013-03-05 02:21:00,
2013-03-04 21:27:00,36.0,31.6,29.75,NE,38,1.0,8.0,84,0.00,,,0.00,meteohub,2013-03-05 02:27:00,
2013-03-04 21:32:00,36.0,31.8,29.76,NE,50,4.0,7.0,85,0.00,,,0.00,meteohub,2013-03-05 02:32:00,
2013-03-04 21:37:00,36.0,31.8,29.75,NNE,32,6.0,7.0,85,0.00,,,0.00,meteohub,2013-03-05 02:37:00,
2013-03-04 21:42:00,36.0,31.8,29.76,ENE,63,2.0,13.0,85,0.00,,,0.00,meteohub,2013-03-05 02:42:00,
2013-03-04 21:47:00,36.0,31.8,29.76,ENE,68,1.0,13.0,85,0.00,,,0.00,meteohub,2013-03-05 02:47:00,
2013-03-04 21:52:00,35.8,31.6,29.76,ENE,68,2.0,13.0,85,0.00,,,0.00,meteohub,2013-03-05 02:52:00,
2013-03-04 21:57:00,35.8,31.6,29.76,NNE,29,4.0,9.0,85,0.00,,,0.00,meteohub,2013-03-05 02:57:00,
2013-03-04 22:02:00,35.8,31.6,29.77,NNE,33,3.0,7.0,85,0.00,,,0.00,meteohub,2013-03-05 03:02:00,
2013-03-04 22:07:00,35.8,31.5,29.77,NE,37,3.0,7.0,84,0.00,,,0.00,meteohub,2013-03-05 03:07:00,
2013-03-04 22:12:00,36.0,31.3,29.77,ENE,61,5.0,9.0,83,0.00,,,0.00,meteohub,2013-03-05 03:12:00,
2013-03-04 22:17:00,36.0,30.9,29.77,ENE,74,2.0,13.0,82,0.00,,,0.00,meteohub,2013-03-05 03:17:00,
2013-03-04 22:22:00,36.0,30.9,29.77,East,79,3.0,13.0,82,0.00,,,0.00,meteohub,2013-03-05 03:22:00,
2013-03-04 22:27:00,35.8,30.7,29.78,NE,50,2.0,13.0,82,0.00,,,0.00,meteohub,2013-03-05 03:27:00,
2013-03-04 22:32:00,35.8,31.1,29.78,NE,36,3.0,9.0,83,0.00,,,0.00,meteohub,2013-03-05 03:32:00,
2013-03-04 22:37:00,35.8,31.1,29.78,NE,49,0.0,9.0,83,0.00,,,0.00,meteohub,2013-03-05 03:37:00,
2013-03-04 22:42:00,35.6,30.9,29.78,North,5,7.0,8.0,83,0.00,,,0.00,meteohub,2013-03-05 03:42:00,
2013-03-04 22:47:00,35.6,30.9,29.78,NE,49,2.0,9.0,83,0.00,,,0.00,meteohub,2013-03-05 03:47:00,
2013-03-04 22:52:00,35.6,30.9,29.78,NNE,30,1.0,9.0,83,0.00,,,0.00,meteohub,2013-03-05 03:52:00,
2013-03-04 22:57:00,35.6,30.9,29.78,North,9,2.0,9.0,83,0.00,,,0.00,meteohub,2013-03-05 03:57:00,
2013-03-04 23:02:00,35.6,30.9,29.78,NNW,348,9.0,9.0,83,0.00,,,0.00,meteohub,2013-03-05 04:02:00,
2013-03-04 23:07:00,35.6,30.9,29.78,NE,34,3.0,11.0,83,0.00,,,0.00,meteohub,2013-03-05 04:07:00,
2013-03-04 23:12:00,35.6,30.9,29.78,ENE,61,7.0,11.0,83,0.00,,,0.00,meteohub,2013-03-05 04:12:00,
2013-03-04 23:17:00,35.6,30.9,29.78,ENE,69,4.0,11.0,83,0.00,,,0.00,meteohub,2013-03-05 04:17:00,
2013-03-04 23:22:00,35.6,30.9,29.79,NNW,335,8.0,10.0,83,0.00,,,0.00,meteohub,2013-03-05 04:22:00,
2013-03-04 23:27:00,35.6,30.9,29.79,NNE,26,3.0,10.0,83,0.00,,,0.00,meteohub,2013-03-05 04:27:00,
2013-03-04 23:32:00,35.4,30.7,29.79,NNE,13,1.0,10.0,83,0.00,,,0.00,meteohub,2013-03-05 04:32:00,
2013-03-04 23:37:00,35.6,30.7,29.79,East,83,2.0,10.0,82,0.00,,,0.00,meteohub,2013-03-05 04:37:00,
2013-03-04 23:42:00,35.6,30.7,29.80,NNE,30,1.0,9.0,82,0.00,,,0.00,meteohub,2013-03-05 04:42:00,
2013-03-04 23:47:00,35.8,30.7,29.80,East,88,3.0,9.0,82,0.00,,,0.00,meteohub,2013-03-05 04:47:00,
2013-03-04 23:52:00,35.8,30.7,29.80,ENE,75,4.0,9.0,82,0.00,,,0.00,meteohub,2013-03-05 04:52:00,
2013-03-04 23:57:00,35.8,30.7,29.80,NE,55,3.0,9.0,82,0.00,,,0.00,meteohub,2013-03-05 04:57:00,